Wind_Speed
13 13 12 11 11 10 8 7 6 5 4 4 3 3 3 2 2 3 5 6 6 5 5 5 5 6 6 6 6 7 7 7 8 8 7 7 8 7 6 6 6 6
15 14 13 12 12 11 10 9 8 6 5 5 4 4 4 3 3 4 5 6 6 6 5 5 5 5 5 5 5 5 5 5 5 6 6 6 6 5 5 5 5 5
16 15 15 14 13 12 11 10 9 8 7 6 5 5 5 4 4 4 5 6 7 7 6 6 6 5 5 5 5 4 4 4 4 4 4 4 4 4 4 4 4 4
18 17 16 15 14 13 12 11 11 10 9 7 6 6 6 5 5 5 5 6 6 7 7 6 6 6 5 5 5 5 5 4 4 3 3 3 3 3 3 3 3 4
18 18 17 16 15 15 14 13 13 12 11 9 8 7 7 6 6 6 6 6 6 6 6 6 5 5 5 4 4 4 4 4 4 3 3 2 2 2 3 3 3 4
19 19 18 17 17 16 15 15 14 13 11 10 9 8 7 7 7 7 7 7 7 6 6 6 5 5 4 4 4 4 3 3 3 3 3 3 3 3 4 4 4 4
19 19 19 18 17 16 15 15 14 13 12 11 10 10 9 9 9 9 9 8 7 7 7 7 7 6 6 6 5 5 5 5 4 4 4 4 4 4 4 4 4 4
18 18 18 17 16 16 15 14 14 13 13 12 11 11 10 10 10 10 10 10 9 9 8 8 8 7 7 7 6 6 6 6 6 6 7 6 6 6 6 6 6 6
17 17 17 16 16 16 15 15 14 14 14 13 12 11 11 11 11 11 11 11 11 11 10 10 9 8 8 8 7 7 7 7 7 8 8 8 8 8 8 8 8 8
18 18 17 17 17 17 16 16 15 14 14 13 13 13 12 12 12 12 12 13 13 12 12 11 10 10 9 9 9 8 8 8 8 9 9 9 9 10 10 10 10 10
20 19 19 18 18 18 17 17 15 15 15 14 13 13 13 13 13 13 13 14 13 13 13 12 12 11 11 10 10 9 9 9 9 9 9 10 10 10 10 11 11 11
20 20 20 20 19 19 18 17 16 16 15 14 14 14 13 13 14 14 14 14 14 14 14 13 13 12 12 12 11 11 10 10 9 9 9 10 10 10 11 11 12 12
21 21 21 21 20 19 18 17 17 16 16 15 15 15 14 14 15 15 15 15 15 15 15 15 15 14 14 14 13 13 12 11 11 11 11 11 11 11 11 11 12 13
23 22 21 21 20 19 18 17 17 17 16 16 15 15 15 16 16 16 16 16 16 17 17 16 16 16 16 16 15 15 14 14 14 13 13 12 12 12 12 12 12 13
25 24 23 22 20 19 18 18 18 18 17 17 16 16 17 17 17 16 17 17 18 18 18 18 18 18 18 18 18 18 18 17 17 16 15 15 14 13 13 13 14 14
27 26 25 24 22 22 21 20 20 19 19 18 17 17 18 17 17 17 18 18 19 19 19 19 20 20 20 21 21 21 20 20 19 19 18 17 16 16 15 15 15 15
30 29 28 27 26 25 25 24 24 23 21 20 20 19 19 19 19 19 19 20 20 20 20 21 21 22 23 23 23 23 22 22 21 20 20 19 18 17 17 17 17 18
30 30 29 29 28 28 28 28 27 26 25 24 23 23 23 23 22 22 22 22 22 22 22 22 23 24 25 25 24 24 23 23 22 22 21 21 20 20 20 19 19 20
29 29 29 29 29 29 29 29 29 28 28 28 27 27 27 27 26 26 25 25 24 24 24 24 25 26 26 26 25 25 24 24 24 23 23 22 22 22 22 22 22 21
30 29 28 27 28 29 30 31 31 31 31 30 30 30 30 29 29 28 28 27 26 26 26 26 27 27 27 27 27 26 26 25 25 25 24 24 24 24 24 24 23 22
30 30 29 28 27 28 30 31 32 32 31 31 31 31 31 30 30 30 30 29 29 28 28 28 28 29 29 29 28 28 27 26 26 25 25 25 25 25 25 24 24 23
31 31 30 29 29 29 29 30 30 31 31 31 30 30 30 30 30 31 31 31 31 31 31 31 30 30 30 30 30 29 29 28 27 26 25 26 26 26 26 26 25 25
33 32 32 30 29 28 28 29 30 30 30 30 30 29 29 29 30 31 32 32 32 32 32 32 32 32 32 31 31 31 30 30 29 28 27 27 27 27 27 27 27 26
35 34 33 32 30 30 30 31 31 31 30 30 30 30 29 29 29 30 31 32 33 34 34 34 34 33 33 32 31 31 32 31 31 30 29 29 29 29 29 29 28 27
39 37 36 34 34 33 31 31 32 32 31 31 32 32 31 30 30 30 31 32 34 35 36 35 35 34 34 33 33 33 33 32 32 31 31 30 30 30 30 30 29 29
40 39 38 37 36 35 34 34 34 34 34 34 34 34 32 30 30 30 31 34 37 37 37 36 36 35 35 34 35 35 34 33 32 32 32 31 30 30 31 31 31 31
Wind_Direction
189 190 190 189 191 194 197 199 203 207 211 219 218 205 201 198 181 169 168 169 166 159 155 157 160 164 170 177 184 188 192 196 199 202 205 209 215 220 223 227 230 235
196 197 199 199 200 201 204 208 211 215 221 227 230 224 219 221 209 188 179 179 175 167 162 161 161 163 165 169 179 186 189 192 196 202 207 213 220 224 228 233 238 245
201 203 206 207 209 210 213 218 221 223 226 227 230 229 227 229 222 201 190 186 183 177 172 171 168 167 169 170 174 182 187 190 196 205 211 219 230 236 240 243 250 257
207 209 212 213 216 219 220 224 226 228 229 229 229 230 231 231 222 209 200 195 192 187 181 180 177 173 173 175 175 180 189 192 197 207 217 226 240 254 258 262 267 272
214 216 217 219 221 224 226 227 228 229 229 226 225 229 233 233 223 212 207 203 202 200 193 191 189 185 184 186 186 188 193 196 197 205 216 222 235 253 265 272 279 286
217 219 220 221 223 226 229 229 230 231 230 226 225 228 229 226 220 213 211 209 209 210 208 207 207 208 211 215 217 217 221 223 220 224 229 235 243 249 255 263 273 286
217 219 219 221 222 225 227 227 228 230 229 227 227 227 224 219 215 212 212 212 213 215 216 219 220 223 227 233 239 244 247 252 255 260 260 259 260 259 259 264 270 280
217 218 220 220 221 222 222 223 226 228 231 232 231 229 225 219 213 212 212 213 215 218 220 223 226 229 233 240 247 253 258 263 267 271 270 269 270 270 271 272 274 279
218 221 223 224 225 226 226 227 230 233 236 238 237 233 229 223 216 214 214 215 217 220 224 226 229 233 239 244 250 256 261 265 268 271 272 272 272 273 274 274 274 276
219 223 226 228 230 232 233 234 236 238 240 240 239 237 234 230 225 220 218 219 221 223 226 230 234 238 244 248 251 255 260 264 266 268 271 273 274 275 276 276 276 276
218 221 224 227 230 232 233 235 237 239 242 242 240 238 236 234 233 230 226 224 224 226 229 233 237 241 246 249 252 255 258 261 264 267 268 269 272 275 277 279 280 280
220 220 222 224 226 228 230 232 234 237 240 241 241 241 239 238 237 236 234 232 229 229 230 234 237 240 244 247 251 254 255 258 263 265 266 265 267 271 274 277 280 281
225 224 225 225 224 225 226 228 230 233 237 239 241 243 242 241 241 240 238 238 236 234 234 236 239 241 244 247 250 253 255 257 259 262 263 264 266 269 271 274 277 280
227 228 230 231 230 229 228 228 229 231 233 235 238 241 243 243 244 243 242 242 242 241 241 241 243 245 246 248 249 250 251 251 253 256 258 261 264 267 271 274 276 279
229 229 231 233 235 235 234 232 232 232 233 234 235 237 240 243 245 246 246 246 245 245 245 245 247 248 249 250 250 249 249 250 251 252 253 255 258 262 266 269 271 275
230 230 231 232 234 235 236 235 235 234 235 235 236 238 240 241 243 245 245 246 247 247 247 248 248 249 250 250 251 252 252 252 252 252 252 253 254 257 261 265 268 270
231 231 231 231 231 232 234 235 235 235 235 235 236 239 241 242 242 243 244 245 246 247 248 249 249 250 250 250 251 252 253 253 253 254 254 254 255 258 260 263 266 268
236 236 235 234 233 233 233 234 236 236 236 236 236 237 239 241 241 242 243 245 246 247 247 248 249 250 252 252 253 253 253 254 254 255 256 258 259 260 261 263 266 269
238 240 241 242 241 240 239 238 239 239 239 238 238 238 239 241 242 243 244 246 247 248 249 249 250 251 253 254 254 255 255 255 256 256 257 258 260 261 263 265 268 270
239 238 239 243 246 246 245 244 242 242 242 242 242 242 242 243 244 246 247 248 250 250 251 252 253 255 256 256 256 256 256 256 257 257 257 258 259 261 263 266 268 270
246 241 236 236 239 243 245 246 246 245 245 246 248 249 249 249 249 249 250 250 251 252 253 253 255 256 257 258 259 258 258 258 258 258 259 260 261 262 263 264 266 267
243 244 240 237 236 239 243 246 248 250 250 251 252 254 256 257 257 256 254 253 252 252 253 254 254 255 256 258 259 260 260 261 261 261 261 261 262 262 263 264 265 266
234 239 241 242 241 241 242 243 245 247 251 253 254 255 256 257 258 259 258 257 257 255 255 254 254 255 256 257 258 260 262 262 262 262 262 263 263 264 264 265 266 267
236 236 238 243 245 242 240 240 242 243 246 250 252 255 256 255 256 258 259 259 260 259 258 257 256 256 257 257 258 259 260 261 262 262 262 262 263 265 266 266 267 268
239 239 238 241 244 243 242 244 246 248 249 248 247 248 252 254 256 258 260 259 259 259 259 259 259 259 259 259 258 258 257 258 259 260 260 260 261 264 266 267 268 269
238 241 241 240 241 243 246 249 251 252 252 251 246 244 246 251 255 259 263 263 260 258 257 257 257 258 258 259 259 259 257 256 256 257 258 259 261 263 265 267 267 267
Height
5939 5940 5941 5942 5942 5943 5943 5944 5944 5945 5945 5945 5946 5946 5946 5947 5947 5947 5947 5948 5948 5948 5949 5949 5949 5950 5951 5951 5952 5953 5953 5954 5954 5955 5955 5955 5956 5956 5956 5956 5956 5956
5939 5940 5941 5941 5942 5943 5943 5944 5944 5945 5945 5946 5946 5946 5947 5947 5947 5948 5948 5948 5949 5949 5949 5950 5950 5951 5951 5952 5953 5953 5954 5954 5955 5955 5955 5955 5956 5956 5956 5956 5956 5956
5939 5939 5940 5941 5942 5943 5943 5944 5944 5945 5945 5946 5946 5946 5947 5947 5948 5948 5948 5949 5949 5949 5950 5950 5951 5951 5952 5952 5953 5954 5954 5955 5955 5955 5955 5955 5956 5956 5956 5956 5956 5956
5938 5939 5940 5941 5942 5942 5943 5943 5944 5945 5945 5946 5946 5947 5947 5947 5948 5948 5948 5949 5950 5950 5950 5951 5951 5952 5952 5953 5953 5954 5954 5955 5955 5955 5955 5955 5955 5955 5956 5955 5955 5955
5938 5939 5940 5940 5941 5942 5942 5943 5944 5944 5945 5945 5946 5946 5947 5947 5948 5948 5949 5949 5950 5950 5951 5951 5952 5952 5953 5953 5953 5954 5954 5954 5955 5955 5955 5955 5955 5955 5955 5955 5954 5954
5938 5938 5939 5940 5941 5941 5942 5943 5943 5944 5945 5945 5946 5946 5947 5947 5948 5948 5949 5949 5950 5950 5951 5951 5952 5952 5953 5953 5953 5954 5954 5954 5954 5954 5955 5954 5954 5954 5954 5954 5954 5953
5937 5938 5938 5939 5940 5941 5942 5942 5943 5943 5944 5945 5945 5946 5946 5947 5947 5948 5948 5949 5950 5950 5951 5951 5952 5952 5952 5953 5953 5953 5954 5954 5954 5954 5954 5954 5954 5953 5953 5953 5953 5953
5936 5937 5938 5939 5939 5940 5941 5942 5942 5943 5944 5944 5945 5945 5946 5946 5947 5947 5948 5948 5949 5950 5950 5951 5951 5952 5952 5952 5953 5953 5953 5953 5953 5953 5953 5953 5953 5953 5953 5952 5952 5952
5935 5936 5937 5938 5939 5939 5940 5941 5942 5943 5943 5944 5944 5945 5945 5945 5946 5946 5947 5947 5948 5949 5949 5950 5951 5951 5951 5952 5952 5952 5952 5952 5952 5952 5952 5952 5952 5952 5952 5952 5952 5952
5933 5934 5936 5937 5938 5938 5939 5940 5941 5942 5942 5943 5943 5944 5944 5945 5945 5945 5945 5946 5946 5947 5948 5949 5949 5950 5950 5950 5951 5951 5951 5951 5951 5951 5951 5951 5951 5951 5951 5951 5951 5951
5931 5932 5934 5935 5936 5937 5937 5938 5939 5940 5941 5942 5942 5943 5943 5944 5944 5944 5945 5945 5945 5946 5947 5947 5948 5948 5949 5949 5949 5950 5950 5950 5950 5950 5950 5950 5950 5950 5950 5950 5950 5950
5930 5931 5931 5932 5933 5934 5935 5936 5937 5938 5939 5940 5941 5941 5942 5942 5943 5943 5944 5944 5945 5945 5946 5946 5946 5947 5947 5947 5948 5948 5948 5948 5949 5949 5949 5949 5949 5949 5949 5949 5949 5949
5928 5928 5929 5930 5931 5932 5933 5934 5935 5936 5937 5938 5939 5940 5940 5941 5941 5942 5942 5943 5943 5944 5944 5944 5945 5945 5945 5946 5946 5946 5947 5947 5947 5947 5948 5947 5947 5947 5947 5947 5947 5947
5925 5926 5927 5928 5929 5930 5931 5932 5933 5934 5935 5936 5937 5938 5938 5939 5939 5940 5940 5941 5942 5942 5942 5943 5943 5943 5944 5944 5944 5944 5945 5945 5945 5946 5946 5946 5946 5946 5946 5946 5946 5945
5922 5924 5925 5926 5927 5929 5930 5931 5931 5932 5932 5933 5934 5935 5936 5937 5937 5938 5938 5939 5939 5940 5940 5941 5941 5941 5942 5942 5942 5942 5942 5942 5943 5943 5943 5944 5944 5944 5944 5944 5944 5944
5920 5921 5922 5923 5925 5926 5927 5928 5929 5930 5930 5931 5932 5933 5934 5934 5935 5936 5936 5937 5937 5937 5938 5939 5939 5939 5939 5939 5940 5940 5940 5940 5941 5941 5941 5941 5942 5942 5942 5942 5942 5942
5917 5918 5919 5920 5921 5923 5924 5925 5926 5927 5928 5929 5929 5930 5931 5932 5932 5933 5933 5934 5934 5935 5936 5936 5936 5936 5936 5937 5937 5937 5938 5938 5938 5939 5939 5939 5940 5940 5940 5940 5940 5940
5915 5916 5916 5917 5918 5919 5920 5921 5922 5923 5924 5925 5926 5927 5927 5928 5929 5930 5930 5931 5931 5932 5933 5933 5933 5933 5933 5934 5934 5935 5935 5935 5936 5936 5937 5937 5937 5938 5938 5938 5938 5938
5912 5913 5915 5916 5916 5917 5918 5919 5920 5921 5922 5922 5923 5923 5924 5925 5926 5927 5927 5928 5929 5929 5930 5930 5930 5930 5930 5931 5931 5932 5932 5933 5933 5934 5934 5935 5935 5935 5935 5935 5935 5936
5908 5909 5910 5912 5914 5915 5916 5916 5917 5918 5918 5919 5920 5921 5921 5922 5923 5924 5925 5925 5926 5927 5927 5927 5927 5928 5928 5928 5928 5929 5929 5930 5931 5931 5932 5932 5932 5932 5932 5932 5932 5932
5905 5905 5906 5907 5909 5910 5911 5912 5913 5914 5915 5916 5917 5918 5919 5920 5921 5921 5922 5923 5923 5924 5924 5925 5925 5925 5925 5925 5925 5926 5926 5927 5928 5928 5928 5929 5929 5929 5929 5929 5929 5929
5901 5903 5904 5904 5904 5906 5907 5909 5910 5911 5911 5912 5913 5915 5916 5918 5919 5919 5919 5919 5920 5920 5921 5921 5921 5921 5922 5922 5922 5923 5923 5924 5924 5924 5925 5925 5925 5925 5925 5925 5925 5925
5896 5899 5901 5902 5902 5903 5904 5905 5906 5907 5908 5909 5910 5911 5913 5914 5915 5915 5916 5916 5916 5916 5917 5917 5917 5917 5918 5918 5919 5919 5920 5920 5920 5920 5921 5921 5921 5921 5921 5921 5921 5921
5893 5895 5897 5898 5900 5900 5900 5900 5901 5902 5903 5904 5906 5907 5909 5910 5911 5912 5912 5913 5913 5913 5913 5913 5913 5913 5914 5914 5914 5915 5915 5916 5916 5916 5917 5917 5917 5917 5917 5917 5918 5919
5890 5891 5892 5894 5896 5896 5897 5897 5898 5898 5899 5900 5901 5903 5905 5906 5907 5908 5909 5909 5909 5909 5909 5909 5910 5910 5910 5910 5910 5910 5911 5911 5912 5912 5912 5913 5913 5913 5914 5914 5915 5915
5886 5887 5889 5890 5891 5892 5894 5894 5895 5895 5895 5896 5897 5898 5900 5902 5903 5904 5904 5904 5904 5904 5905 5906 5906 5906 5906 5906 5906 5906 5906 5907 5907 5908 5908 5908 5909 5909 5910 5910 5910 5911